When you browse on this site, cookies collect data to enhance your experience and personalize the content and advertising you see.
Visit our Privacy Policy to learn more. By continuing to use the site, you agree to this use of cookies and data.
  • In Portugal
  • List of Countries
  • For 7 days
  • Water Temperature
  • Weather Map
  • Weather Widgets
  • user-avatar
    Login

    Hourly Weather Tamale

    Today, 4 April, Saturday

    Time Temperature Precipitation Wind Pressure Humidity
    00:00 +34°C° 0 mm 3 mps 740 mmHg 51%
    01:00 +33°C° 0 mm 3 mps 739 mmHg 56%
    02:00 +32°C° 0 mm 4 mps 739 mmHg 61%
    03:00 +30°C° 0 mm 4 mps 739 mmHg 67%
    04:00 +30°C° 0 mm 4 mps 739 mmHg 69%
    05:00 +29°C° 0 mm 4 mps 740 mmHg 71%
    06:00 +29°C° 0 mm 3 mps 741 mmHg 74%
    07:00 +30°C° 0 mm 3 mps 741 mmHg 69%
    08:00 +33°C° 0 mm 3 mps 742 mmHg 64%
    09:00 +34°C° 0 mm 3 mps 742 mmHg 59%
    10:00 +36°C° 0 mm 3 mps 742 mmHg 52%
    11:00 +38°C° 0 mm 3 mps 741 mmHg 45%
    12:00 +40°C° 0 mm 3 mps 741 mmHg 39%
    13:00 +41°C° 0 mm 2 mps 740 mmHg 34%
    14:00 +42°C° 0 mm 2 mps 739 mmHg 30%
    15:00 +43°C° 0 mm 1 mps 738 mmHg 26%
    16:00 +42°C° 0 mm 1 mps 738 mmHg 27%
    17:00 +41°C° 0 mm 1 mps 738 mmHg 29%
    18:00 +40°C° 0 mm 1 mps 738 mmHg 31%
    19:00 +37°C° 0.1 mm 1 mps 739 mmHg 35%
    20:00 +35°C° 0.1 mm 1 mps 740 mmHg 39%
    21:00 +34°C° 0.1 mm 1 mps 741 mmHg 43%
    22:00 +34°C° 0.3 mm 3 mps 741 mmHg 49%
    23:00 +33°C° 0.3 mm 4 mps 741 mmHg 54%

    Tomorrow, 5 April, Sunday

    Time Temperature Precipitation Wind Pressure Humidity
    00:00 +32°C° 0.3 mm 6 mps 741 mmHg 60%
    01:00 +30°C° 0 mm 5 mps 741 mmHg 63%
    02:00 +30°C° 0 mm 4 mps 741 mmHg 67%
    03:00 +29°C° 0 mm 4 mps 740 mmHg 70%
    04:00 +29°C° 0 mm 3 mps 741 mmHg 71%
    05:00 +29°C° 0 mm 2 mps 741 mmHg 72%
    06:00 +28°C° 0 mm 2 mps 741 mmHg 73%
    07:00 +30°C° 0 mm 2 mps 742 mmHg 68%
    08:00 +31°C° 0 mm 2 mps 742 mmHg 62%
    09:00 +34°C° 0 mm 3 mps 743 mmHg 57%
    10:00 +36°C° 0 mm 3 mps 742 mmHg 50%
    11:00 +38°C° 0 mm 3 mps 741 mmHg 43%
    12:00 +40°C° 0 mm 3 mps 741 mmHg 36%
    13:00 +42°C° 0 mm 2 mps 740 mmHg 32%
    14:00 +43°C° 0 mm 2 mps 739 mmHg 28%
    15:00 +44°C° 0 mm 1 mps 738 mmHg 24%
    16:00 +43°C° 0 mm 1 mps 738 mmHg 25%
    17:00 +41°C° 0 mm 1 mps 738 mmHg 27%
    18:00 +37°C° 0 mm 0 mps 739 mmHg 28%
    19:00 +39°C° 0 mm 1 mps 739 mmHg 31%
    20:00 +37°C° 0 mm 1 mps 740 mmHg 33%
    21:00 +36°C° 0 mm 1 mps 740 mmHg 36%
    22:00 +35°C° 0 mm 1 mps 740 mmHg 40%
    23:00 +35°C° 0 mm 2 mps 739 mmHg 43%

    Day after tomorrow, 6 April, Monday

    Time Temperature Precipitation Wind Pressure Humidity
    00:00 +34°C° 0 mm 2 mps 739 mmHg 47%
    01:00 +34°C° 0 mm 2 mps 739 mmHg 49%
    02:00 +32°C° 0 mm 2 mps 739 mmHg 51%
    03:00 +32°C° 0 mm 2 mps 739 mmHg 52%
    04:00 +31°C° 0 mm 3 mps 739 mmHg 59%
    05:00 +30°C° 0 mm 3 mps 739 mmHg 66%
    06:00 +30°C° 0 mm 4 mps 740 mmHg 72%
    07:00 +32°C° 0 mm 4 mps 740 mmHg 68%
    08:00 +33°C° 0 mm 4 mps 741 mmHg 63%
    09:00 +35°C° 0 mm 4 mps 742 mmHg 59%
    10:00 +37°C° 0 mm 4 mps 742 mmHg 52%
    11:00 +40°C° 0 mm 4 mps 741 mmHg 46%
    12:00 +41°C° 0 mm 4 mps 741 mmHg 40%
    13:00 +42°C° 0 mm 3 mps 740 mmHg 36%
    14:00 +42°C° 0 mm 2 mps 739 mmHg 32%
    15:00 +43°C° 0 mm 2 mps 739 mmHg 29%
    16:00 +40°C° 0.8 mm 3 mps 739 mmHg 38%
    17:00 +37°C° 0.8 mm 4 mps 739 mmHg 48%
    18:00 +34°C° 0.8 mm 5 mps 739 mmHg 57%
    19:00 +33°C° 0.9 mm 4 mps 740 mmHg 61%
    20:00 +31°C° 0.9 mm 3 mps 740 mmHg 65%
    21:00 +29°C° 0.9 mm 2 mps 741 mmHg 68%
    22:00 +29°C° 0 mm 3 mps 741 mmHg 68%
    23:00 +29°C° 0 mm 3 mps 741 mmHg 68%

    7 April, Tuesday

    Time Temperature Precipitation Wind Pressure Humidity
    00:00 +29°C° 0 mm 4 mps 741 mmHg 69%
    01:00 +29°C° 0 mm 4 mps 740 mmHg 71%
    02:00 +29°C° 0 mm 4 mps 740 mmHg 73%
    03:00 +29°C° 0 mm 4 mps 739 mmHg 75%
    04:00 +29°C° 0 mm 3 mps 740 mmHg 77%
    05:00 +28°C° 0 mm 3 mps 740 mmHg 79%
    06:00 +28°C° 0 mm 3 mps 740 mmHg 81%
    07:00 +29°C° 0 mm 3 mps 741 mmHg 76%
    08:00 +31°C° 0 mm 3 mps 741 mmHg 71%
    09:00 +33°C° 0 mm 3 mps 742 mmHg 66%
    10:00 +35°C° 0 mm 3 mps 741 mmHg 58%
    11:00 +37°C° 0 mm 3 mps 741 mmHg 50%
    12:00 +39°C° 0 mm 3 mps 741 mmHg 42%
    13:00 +40°C° 0 mm 3 mps 740 mmHg 40%
    14:00 +40°C° 0 mm 3 mps 739 mmHg 37%
    15:00 +41°C° 0 mm 2 mps 739 mmHg 34%
    16:00 +40°C° 0 mm 2 mps 739 mmHg 37%
    17:00 +39°C° 0 mm 2 mps 739 mmHg 39%
    18:00 +38°C° 0 mm 2 mps 739 mmHg 42%
    19:00 +37°C° 0.2 mm 3 mps 739 mmHg 47%
    20:00 +35°C° 0.2 mm 4 mps 740 mmHg 52%
    21:00 +34°C° 0.2 mm 5 mps 740 mmHg 57%
    22:00 +33°C° 0.6 mm 4 mps 741 mmHg 60%
    23:00 +32°C° 0.6 mm 4 mps 741 mmHg 63%

    8 April, Wednesday

    Time Temperature Precipitation Wind Pressure Humidity
    00:00 +30°C° 0.6 mm 4 mps 741 mmHg 65%
    01:00 +29°C° 0 mm 3 mps 741 mmHg 69%
    02:00 +29°C° 0 mm 3 mps 740 mmHg 72%
    03:00 +29°C° 0 mm 3 mps 740 mmHg 75%
    04:00 +28°C° 0 mm 3 mps 740 mmHg 77%
    05:00 +28°C° 0 mm 2 mps 740 mmHg 79%
    06:00 +28°C° 0 mm 2 mps 740 mmHg 82%
    07:00 +29°C° 0 mm 2 mps 741 mmHg 76%
    08:00 +31°C° 0 mm 2 mps 741 mmHg 71%
    09:00 +33°C° 0 mm 3 mps 742 mmHg 65%
    10:00 +35°C° 0 mm 2 mps 742 mmHg 57%
    11:00 +37°C° 0 mm 2 mps 741 mmHg 49%
    12:00 +39°C° 0 mm 2 mps 741 mmHg 40%
    13:00 +40°C° 0 mm 2 mps 740 mmHg 38%
    14:00 +40°C° 0 mm 2 mps 739 mmHg 36%
    15:00 +41°C° 0 mm 2 mps 739 mmHg 34%
    16:00 +40°C° 0 mm 2 mps 739 mmHg 37%
    17:00 +39°C° 0 mm 2 mps 738 mmHg 40%
    18:00 +37°C° 0 mm 2 mps 738 mmHg 43%
    19:00 +36°C° 0.1 mm 2 mps 738 mmHg 46%
    20:00 +35°C° 0.1 mm 2 mps 739 mmHg 50%
    21:00 +34°C° 0.1 mm 2 mps 739 mmHg 53%
    22:00 +32°C° 0.6 mm 2 mps 739 mmHg 58%
    23:00 +32°C° 0.6 mm 1 mps 740 mmHg 62%

    9 April, Thursday

    Time Temperature Precipitation Wind Pressure Humidity
    00:00 +31°C° 0.6 mm 1 mps 740 mmHg 67%
    01:00 +30°C° 0.1 mm 1 mps 740 mmHg 68%
    02:00 +30°C° 0.1 mm 1 mps 740 mmHg 70%
    03:00 +30°C° 0.1 mm 1 mps 740 mmHg 72%
    04:00 +29°C° 0.8 mm 1 mps 740 mmHg 75%
    05:00 +28°C° 0.8 mm 1 mps 740 mmHg 78%
    06:00 +28°C° 0.8 mm 1 mps 740 mmHg 81%
    07:00 +29°C° 0.1 mm 2 mps 741 mmHg 77%
    08:00 +30°C° 0.1 mm 3 mps 742 mmHg 74%
    09:00 +32°C° 0.1 mm 4 mps 742 mmHg 70%
    10:00 +32°C° 0.1 mm 4 mps 742 mmHg 69%
    11:00 +31°C° 0.1 mm 3 mps 741 mmHg 68%
    12:00 +33°C° 0.1 mm 3 mps 741 mmHg 67%
    13:00 +34°C° 0.4 mm 2 mps 740 mmHg 62%
    14:00 +35°C° 0.4 mm 2 mps 740 mmHg 57%
    15:00 +35°C° 0.4 mm 1 mps 739 mmHg 52%
    16:00 +34°C° 0 mm 1 mps 739 mmHg 53%
    17:00 +34°C° 0 mm 1 mps 739 mmHg 53%
    18:00 +33°C° 0 mm 1 mps 739 mmHg 54%
    19:00 +33°C° 0 mm 1 mps 739 mmHg 56%
    20:00 +32°C° 0 mm 1 mps 739 mmHg 59%
    21:00 +31°C° 0 mm 1 mps 739 mmHg 61%
    22:00 +31°C° 0 mm 1 mps 739 mmHg 62%
    23:00 +30°C° 0 mm 1 mps 740 mmHg 64%
    Show more